Regional Weather Roundup
Issued by NWS Glasgow, MT

Home | Current Version | Previous Version | Text Only | Print | Product List | Glossary On
Versions: 1 2 3 4 5 6 7 8 9 10 11 12 13 14 15 16 17 18 19 20 21 22 23 24 25 26 27 28 29 30 31 32 33 34 35 36 37 38 39 40 41 42 43 44 45 46 47 48 49 50
000
ASUS45 KGGW 250815
RWRGGW
HOURLY REGIONAL WEATHER ROUNDUP FOR NORTHEAST MONTANA
NATIONAL WEATHER SERVICE GLASGOW MONTANA
200 AM MDT MON JUL 25 2016

NOTE: "FAIR" INDICATES FEW OR NO CLOUDS BELOW 12,000 FEET WITH NO
SIGNIFICANT WEATHER AND/OR OBSTRUCTIONS TO VISISBILITY.

NORTHEAST MONTANA


CITY           SKY/WX    TMP DP  RH WIND       PRES   REMARKS
GLASGOW        CLEAR     62  51  67 E10       29.97F
PLENTYWOOD       N/A     66  56  70 E7          N/A
WOLF POINT     CLEAR     61  54  77 NE6       29.97F
JORDAN           N/A     56  45  66 W5        29.99F
WINNETT          N/A     53  45  74 S2          N/A
SIDNEY         CLEAR     61  54  77 N5        29.97F
GLENDIVE       CLEAR     68  49  50 S7        29.98F
MALTA            N/A     58  52  80 SW1         N/A
SCOBEY           N/A     61  50  67 CALM      30.00S
OPHEIM           N/A     63  48  59 E5        29.75F

FORT PECK REPORTS


CITY           SKY/WX    TMP DP  RH WIND       PRES   REMARKS
FORT PECK        N/A     67  53  61 NE5         N/A

SOUTHEAST MONTANA


CITY           SKY/WX    TMP DP  RH WIND       PRES   REMARKS
BILLINGS       CLEAR     74  37  26 S6        30.02F
MILES CITY     CLEAR     73  46  38 SE8       29.96F
BAKER          CLEAR     63  49  60 SE10      30.02F
LIVINGSTON     CLEAR     55  37  50 NW6       30.11S

CENTRAL MONTANA


CITY           SKY/WX    TMP DP  RH WIND       PRES   REMARKS
HAVRE          CLEAR     60  46  59 MISG      29.97R
LEWISTOWN      CLEAR     57  45  64 SE3       30.08S
GREAT FALLS    CLEAR     56  42  59 SW5       30.05R
CUT BANK       CLEAR     58  45  62 CALM      30.05S
HELENA         CLEAR     67  39  35 SW3       30.08S
BUTTE          CLEAR     53  37  54 SE6       30.19S
BOZEMAN        CLEAR     53  44  71 S5        30.10F

WESTERN MONTANA


CITY           SKY/WX    TMP DP  RH WIND       PRES   REMARKS
MISSOULA       CLEAR     61  46  57 CALM      30.08R
KALISPELL      NOT AVBL

NORTH DAKOTA


CITY           SKY/WX    TMP DP  RH WIND       PRES   REMARKS
WILLISTON      CLEAR     65  57  75 N6        29.99F
DICKINSON      CLEAR     57  52  83 S7        30.02F
MINOT          CLEAR     65  60  84 CALM      30.02R
BISMARCK       CLEAR     63  58  83 E5        30.03F

SOUTHERN SASKATCHEWAN


CITY           SKY/WX    TMP DP  RH WIND       PRES   REMARKS
REGINA         CLEAR     57  55  94 S8        29.99F
ESTEVAN        CLEAR     59  57  94 SE7       30.02S
SWIFT CURRENT  CLEAR     59  57  94 SE9       29.96F




USA.gov is the U.S. government's official web portal to all federal, state and local government web resources and services.